| time (UTC) | temp C | wind direction | speed KPH | gust KPH | rain 1hr cm | rain 24hr cm | rain mn cm | humidity % | barometer mb |
| 20260904060804 | 24 | 137 | 3.2 | 11.3 | 0.00 | 0.00 | 0.00 | 60 | 1014.6 |
| 20260904060630 | 24 | 173 | 6.4 | 11.3 | 0.00 | 0.00 | 0.00 | 60 | 1014.6 |
| 20260904055804 | 25 | 135 | 4.8 | 11.3 | 0.00 | 0.00 | 0.00 | 59 | 1014.6 |
| 20260904055306 | 25 | 147 | 4.8 | 14.5 | 0.00 | 0.00 | 0.00 | 59 | 1014.5 |
| 20260904054804 | 25 | 142 | 6.4 | 14.5 | 0.00 | 0.00 | 0.00 | 59 | 1014.6 |
| 20260904054303 | 25 | 130 | 4.8 | 14.5 | 0.00 | 0.00 | 0.00 | 58 | 1014.7 |
| 20260904053804 | 25 | 117 | 4.8 | 11.3 | 0.00 | 0.00 | 0.00 | 58 | 1014.7 |
| 20260904053304 | 25 | 149 | 4.8 | 16.1 | 0.00 | 0.00 | 0.00 | 59 | 1014.7 |
| 20260904052805 | 25 | 214 | 6.4 | 16.1 | 0.00 | 0.00 | 0.00 | 58 | 1014.7 |
| 20260904052307 | 25 | 147 | 4.8 | 14.5 | 0.00 | 0.00 | 0.00 | 57 | 1014.7 |
| 20260904051804 | 25 | 142 | 6.4 | 19.3 | 0.00 | 0.00 | 0.00 | 57 | 1014.7 |
| 20260904051303 | 25 | 165 | 11.3 | 19.3 | 0.00 | 0.00 | 0.00 | 57 | 1014.7 |
| 20260904050804 | 25 | 99 | 6.4 | 16.1 | 0.00 | 0.00 | 0.00 | 57 | 1014.6 |
| 20260904050305 | 25 | 114 | 6.4 | 20.9 | 0.00 | 0.00 | 0.00 | 57 | 1014.6 |
| 20260904045804 | 25 | 118 | 8.0 | 20.9 | 0.00 | 0.00 | 0.00 | 57 | 1014.5 |
| 20260904045307 | 25 | 106 | 6.4 | 22.5 | 0.00 | 0.00 | 0.00 | 57 | 1014.5 |
| 20260904044806 | 25 | 175 | 9.7 | 22.5 | 0.00 | 0.00 | 0.00 | 56 | 1014.5 |
| 20260904044305 | 25 | 152 | 8.0 | 20.9 | 0.00 | 0.00 | 0.00 | 56 | 1014.6 |
| 20260904043804 | 25 | 127 | 11.3 | 20.9 | 0.00 | 0.00 | 0.00 | 56 | 1014.7 |
| 20260904043307 | 25 | 134 | 11.3 | 22.5 | 0.00 | 0.00 | 0.00 | 55 | 1014.7 |
| 20260904043134 | 25 | 128 | 11.3 | 22.5 | 0.00 | 0.00 | 0.00 | 55 | 1014.6 |
| 20260904042306 | 25 | 134 | 11.3 | 20.9 | 0.00 | 0.00 | 0.00 | 55 | 1014.6 |
| 20260904041804 | 25 | 131 | 9.7 | 20.9 | 0.00 | 0.00 | 0.00 | 54 | 1014.6 |
| 20260904041305 | 25 | 133 | 11.3 | 19.3 | 0.00 | 0.00 | 0.00 | 55 | 1014.5 |
| 20260904040803 | 25 | 111 | 9.7 | 20.9 | 0.00 | 0.00 | 0.00 | 55 | 1014.5 |
| 20260904040305 | 25 | 111 | 11.3 | 27.4 | 0.00 | 0.00 | 0.00 | 55 | 1014.6 |
| 20260904035804 | 25 | 99 | 12.9 | 27.4 | 0.00 | 0.00 | 0.00 | 56 | 1014.5 |
| 20260904035306 | 25 | 103 | 6.4 | 19.3 | 0.00 | 0.00 | 0.00 | 56 | 1014.6 |
| 20260904035142 | 25 | 140 | 8.0 | 19.3 | 0.00 | 0.00 | 0.00 | 55 | 1014.5 |
| 20260904034305 | 25 | 140 | 8.0 | 19.3 | 0.00 | 0.00 | 0.00 | 54 | 1014.6 |
| 20260904033805 | 25 | 93 | 8.0 | 19.3 | 0.00 | 0.00 | 0.00 | 54 | 1014.5 |
| 20260904033306 | 25 | 134 | 8.0 | 14.5 | 0.00 | 0.00 | 0.00 | 54 | 1014.6 |
| 20260904032804 | 25 | 96 | 6.4 | 14.5 | 0.00 | 0.00 | 0.00 | 55 | 1014.6 |
| 20260904032306 | 25 | 148 | 6.4 | 19.3 | 0.00 | 0.00 | 0.00 | 54 | 1014.6 |
| 20260904031803 | 25 | 117 | 11.3 | 20.9 | 0.00 | 0.00 | 0.00 | 54 | 1014.4 |
| 20260904031303 | 25 | 90 | 9.7 | 20.9 | 0.00 | 0.00 | 0.00 | 54 | 1014.4 |
| 20260904030805 | 25 | 137 | 12.9 | 22.5 | 0.00 | 0.00 | 0.00 | 54 | 1014.3 |
| 20260904030306 | 26 | 116 | 11.3 | 22.5 | 0.00 | 0.00 | 0.00 | 53 | 1014.3 |
| 20260904025806 | 26 | 116 | 9.7 | 20.9 | 0.00 | 0.00 | 0.00 | 53 | 1014.2 |
| 20260904025306 | 26 | 110 | 9.7 | 20.9 | 0.00 | 0.00 | 0.00 | 53 | 1014.2 |
| 20260904024803 | 26 | 128 | 8.0 | 19.3 | 0.00 | 0.00 | 0.00 | 53 | 1014.0 |
| 20260904024529 | 26 | 130 | 11.3 | 19.3 | 0.00 | 0.00 | 0.00 | 50 | 1014.0 |
| 20260904023805 | 26 | 109 | 9.7 | 17.7 | 0.00 | 0.00 | 0.00 | 46 | 1014.0 |
| 20260904023639 | 27 | 106 | 8.0 | 11.3 | 0.00 | 0.00 | 0.00 | 45 | 1013.9 |
| 20260904022804 | 27 | 116 | 6.4 | 11.3 | 0.00 | 0.00 | 0.00 | 44 | 1013.8 |
| 20260904022306 | 27 | 124 | 4.8 | 14.5 | 0.00 | 0.00 | 0.00 | 44 | 1013.6 |
| 20260904021804 | 27 | 109 | 6.4 | 14.5 | 0.00 | 0.00 | 0.00 | 45 | 1013.7 |
| 20260904021302 | 27 | 99 | 9.7 | 14.5 | 0.00 | 0.00 | 0.00 | 46 | 1013.6 |
| 20260904021132 | 27 | 94 | 8.0 | 19.3 | 0.00 | 0.00 | 0.00 | 45 | 1013.6 |
| 20260904020304 | 27 | 89 | 9.7 | 22.5 | 0.00 | 0.00 | 0.00 | 47 | 1013.5 |
| 20260904015804 | 26 | 103 | 11.3 | 22.5 | 0.00 | 0.00 | 0.00 | 48 | 1013.6 |
| 20260904015559 | 26 | 106 | 9.7 | 16.1 | 0.00 | 0.00 | 0.00 | 50 | 1013.6 |
| 20260904014806 | 26 | 82 | 6.4 | 14.5 | 0.00 | 0.00 | 0.00 | 52 | 1013.5 |
| 20260904014303 | 26 | 149 | 9.7 | 22.5 | 0.00 | 0.00 | 0.00 | 51 | 1013.5 |
| 20260904013804 | 26 | 107 | 11.3 | 22.5 | 0.00 | 0.00 | 0.00 | 51 | 1013.4 |
| 20260904013308 | 26 | 73 | 11.3 | 20.9 | 0.00 | 0.00 | 0.00 | 50 | 1013.4 |
| 20260904012804 | 27 | 124 | 6.4 | 20.9 | 0.00 | 0.00 | 0.00 | 50 | 1013.5 |
| 20260904012647 | 26 | 104 | 11.3 | 20.9 | 0.00 | 0.00 | 0.00 | 52 | 1013.5 |
| 20260904011804 | 26 | 120 | 6.4 | 37.0 | 0.00 | 0.00 | 0.00 | 53 | 1013.4 |
| 20260904011304 | 26 | 131 | 11.3 | 37.0 | 0.00 | 0.00 | 0.00 | 54 | 1013.4 |
| 20260904010805 | 26 | 141 | 14.5 | 33.8 | 0.00 | 0.00 | 0.00 | 53 | 1013.5 |
| 20260904010710 | 27 | 138 | 17.7 | 33.8 | 0.00 | 0.00 | 0.00 | 52 | 1013.5 |
| 20260904005804 | 27 | 133 | 16.1 | 30.6 | 0.00 | 0.00 | 0.00 | 52 | 1013.4 |
| 20260904005649 | 27 | 206 | 12.9 | 29.0 | 0.00 | 0.00 | 0.00 | 53 | 1013.4 |
| 20260904005140 | 27 | 140 | 9.7 | 29.0 | 0.00 | 0.00 | 0.00 | 53 | 1013.6 |
| 20260904004303 | 27 | 138 | 12.9 | 27.4 | 0.00 | 0.00 | 0.00 | 53 | 1013.7 |
| 20260904003806 | 27 | 159 | 12.9 | 24.1 | 0.00 | 0.00 | 0.00 | 52 | 1013.7 |
| 20260904003534 | 28 | 176 | 14.5 | 24.1 | 0.00 | 0.00 | 0.00 | 46 | 1013.8 |
| 20260904003429 | 28 | 154 | 9.7 | 24.1 | 0.00 | 0.00 | 0.00 | 48 | 1013.8 |
| 20260904002640 | 28 | 145 | 8.0 | 25.7 | 0.00 | 0.00 | 0.00 | 45 | 1013.6 |
| 20260904002038 | 28 | 190 | 11.3 | 25.7 | 0.00 | 0.00 | 0.00 | 49 | 1013.3 |
| 20260904001935 | 28 | 111 | 12.9 | 25.7 | 0.00 | 0.00 | 0.00 | 47 | 1013.4 |
| 20260904000803 | 28 | 100 | 12.9 | 27.4 | 0.00 | 0.00 | 0.00 | 49 | 1013.3 |
| 20260904000305 | 28 | 134 | 14.5 | 32.2 | 0.00 | 0.00 | 0.00 | 49 | 1013.2 |
| 20260903235803 | 28 | 99 | 17.7 | 32.2 | 0.00 | 0.00 | 0.00 | 48 | 1013.3 |
| 20260903235305 | 29 | 110 | 16.1 | 33.8 | 0.00 | 0.00 | 0.00 | 46 | 1013.3 |
| 20260903234805 | 29 | 123 | 20.9 | 33.8 | 0.00 | 0.00 | 0.00 | 46 | 1013.2 |
| 20260903234304 | 29 | 124 | 16.1 | 32.2 | 0.00 | 0.00 | 0.00 | 47 | 1013.2 |
| 20260903233805 | 29 | 121 | 17.7 | 33.8 | 0.00 | 0.00 | 0.00 | 47 | 1013.2 |
| 20260903233303 | 30 | 103 | 19.3 | 33.8 | 0.00 | 0.00 | 0.00 | 46 | 1013.2 |
| 20260903232803 | 30 | 71 | 14.5 | 33.8 | 0.00 | 0.00 | 0.00 | 44 | 1013.2 |
| 20260903232306 | 30 | 114 | 16.1 | 32.2 | 0.00 | 0.00 | 0.00 | 41 | 1013.3 |
| 20260903231814 | 30 | 114 | 14.5 | 37.0 | 0.00 | 0.00 | 0.00 | 41 | 1012.9 |
| 20260903231458 | 30 | 107 | 17.7 | 33.8 | 0.00 | 0.00 | 0.00 | 43 | 1012.9 |
| 20260903231403 | 30 | 82 | 19.3 | 37.0 | 0.00 | 0.00 | 0.00 | 42 | 1012.8 |
| 20260903230649 | 30 | 102 | 17.7 | 30.6 | 0.00 | 0.00 | 0.00 | 44 | 1012.8 |
| 20260903225803 | 30 | 120 | 20.9 | 30.6 | 0.00 | 0.00 | 0.00 | 44 | 1012.8 |
| 20260903225306 | 31 | 75 | 14.5 | 25.7 | 0.00 | 0.00 | 0.00 | 42 | 1012.7 |
| 20260903224803 | 31 | 137 | 11.3 | 22.5 | 0.00 | 0.00 | 0.00 | 40 | 1012.8 |
| 20260903224303 | 31 | 125 | 9.7 | 29.0 | 0.00 | 0.00 | 0.00 | 39 | 1013.0 |
| 20260903223804 | 33 | 120 | 16.1 | 29.0 | 0.00 | 0.00 | 0.00 | 33 | 1013.2 |
| 20260903223304 | 34 | 254 | 9.7 | 22.5 | 0.00 | 0.00 | 0.00 | 26 | 1012.8 |
| 20260903222805 | 35 | 231 | 8.0 | 17.7 | 0.00 | 0.00 | 0.00 | 27 | 1012.4 |
| 20260903222305 | 35 | 266 | 9.7 | 24.1 | 0.00 | 0.00 | 0.00 | 27 | 1012.3 |
| 20260903221803 | 34 | 266 | 9.7 | 24.1 | 0.00 | 0.00 | 0.00 | 28 | 1012.3 |
| 20260903221304 | 34 | 248 | 14.5 | 24.1 | 0.00 | 0.00 | 0.00 | 27 | 1012.3 |
| 20260903220805 | 34 | 295 | 12.9 | 25.7 | 0.00 | 0.00 | 0.00 | 26 | 1012.2 |
| 20260903220303 | 33 | 305 | 9.7 | 33.8 | 0.00 | 0.00 | 0.00 | 27 | 1012.3 |
| 20260903215803 | 33 | 261 | 14.5 | 33.8 | 0.00 | 0.00 | 0.00 | 26 | 1012.3 |
| 20260903215306 | 34 | 252 | 11.3 | 30.6 | 0.00 | 0.00 | 0.00 | 28 | 1012.3 |
| 20260903214804 | 33 | 310 | 11.3 | 25.7 | 0.00 | 0.00 | 0.00 | 30 | 1012.5 |
| 20260903214306 | 34 | 251 | 12.9 | 33.8 | 0.00 | 0.00 | 0.00 | 29 | 1012.6 |
| 20260903214147 | 35 | 274 | 19.3 | 33.8 | 0.00 | 0.00 | 0.00 | 28 | 1012.7 |
| 20260903213531 | 35 | 255 | 14.5 | 27.4 | 0.00 | 0.00 | 0.00 | 26 | 1012.5 |
| 20260903212805 | 35 | 276 | 11.3 | 19.3 | 0.00 | 0.00 | 0.00 | 27 | 1012.7 |
| 20260903212306 | 35 | 282 | 6.4 | 19.3 | 0.00 | 0.00 | 0.00 | 31 | 1012.7 |
| 20260903211807 | 35 | 272 | 6.4 | 17.7 | 0.00 | 0.00 | 0.00 | 30 | 1012.7 |
| 20260903211303 | 34 | 261 | 9.7 | 24.1 | 0.00 | 0.00 | 0.00 | 30 | 1012.7 |
| 20260903210803 | 34 | 269 | 11.3 | 24.1 | 0.00 | 0.00 | 0.00 | 30 | 1012.7 |
| 20260903210307 | 35 | 243 | 9.7 | 24.1 | 0.00 | 0.00 | 0.00 | 29 | 1012.7 |
| 20260903205804 | 35 | 296 | 11.3 | 22.5 | 0.00 | 0.00 | 0.00 | 29 | 1012.8 |
| 20260903205306 | 35 | 213 | 6.4 | 22.5 | 0.00 | 0.00 | 0.00 | 29 | 1012.8 |
| 20260903204804 | 35 | 219 | 6.4 | 22.5 | 0.00 | 0.00 | 0.00 | 28 | 1012.8 |
| 20260903204302 | 36 | 196 | 9.7 | 17.7 | 0.00 | 0.00 | 0.00 | 28 | 1012.8 |
| 20260903203803 | 36 | 204 | 6.4 | 17.7 | 0.00 | 0.00 | 0.00 | 27 | 1012.8 |
| 20260903203304 | 37 | 149 | 4.8 | 19.3 | 0.00 | 0.00 | 0.00 | 25 | 1012.9 |
| 20260903202804 | 38 | 166 | 6.4 | 19.3 | 0.00 | 0.00 | 0.00 | 26 | 1012.8 |
| 20260903202306 | 37 | 82 | 4.8 | 11.3 | 0.00 | 0.00 | 0.00 | 27 | 1012.9 |
| 20260903201808 | 37 | 275 | 6.4 | 11.3 | 0.00 | 0.00 | 0.00 | 27 | 1013.0 |
| 20260903201305 | 37 | 186 | 3.2 | 11.3 | 0.00 | 0.00 | 0.00 | 28 | 1013.2 |
| 20260903201132 | 38 | 116 | 3.2 | 17.7 | 0.00 | 0.00 | 0.00 | 27 | 1013.3 |
| 20260903200303 | 37 | 131 | 4.8 | 17.7 | 0.00 | 0.00 | 0.00 | 28 | 1013.3 |
| 20260903195803 | 36 | 251 | 9.7 | 17.7 | 0.00 | 0.00 | 0.00 | 27 | 1013.5 |
| 20260903195306 | 37 | 224 | 6.4 | 25.7 | 0.00 | 0.00 | 0.00 | 27 | 1013.4 |
| 20260903194809 | 37 | 182 | 12.9 | 25.7 | 0.00 | 0.00 | 0.00 | 25 | 1013.6 |
| 20260903194303 | 38 | 141 | 11.3 | 17.7 | 0.00 | 0.00 | 0.00 | 25 | 1013.6 |
| 20260903193803 | 38 | 123 | 6.4 | 16.1 | 0.00 | 0.00 | 0.00 | 26 | 1013.6 |
| 20260903193303 | 38 | 118 | 3.2 | 16.1 | 0.00 | 0.00 | 0.00 | 26 | 1013.6 |
| 20260903192803 | 38 | 217 | 6.4 | 14.5 | 0.00 | 0.00 | 0.00 | 26 | 1013.7 |
| 20260903192306 | 38 | 183 | 8.0 | 16.1 | 0.00 | 0.00 | 0.00 | 28 | 1013.7 |
| 20260903191802 | 38 | 231 | 6.4 | 17.7 | 0.00 | 0.00 | 0.00 | 28 | 1013.9 |
| 20260903191303 | 38 | 254 | 8.0 | 17.7 | 0.00 | 0.00 | 0.00 | 28 | 1014.0 |
| 20260903190805 | 37 | 183 | 6.4 | 11.3 | 0.00 | 0.00 | 0.00 | 29 | 1014.0 |
| 20260903190637 | 37 | 293 | 3.2 | 14.5 | 0.00 | 0.00 | 0.00 | 28 | 1014.2 |
| 20260903185803 | 37 | 223 | 8.0 | 14.5 | 0.00 | 0.00 | 0.00 | 28 | 1014.2 |
| 20260903185306 | 37 | 258 | 3.2 | 14.5 | 0.00 | 0.00 | 0.00 | 29 | 1014.4 |
| 20260903185136 | 37 | 210 | 3.2 | 14.5 | 0.00 | 0.00 | 0.00 | 28 | 1014.4 |
| 20260903184303 | 37 | 221 | 8.0 | 17.7 | 0.00 | 0.00 | 0.00 | 29 | 1014.5 |
| 20260903183803 | 37 | 298 | 4.8 | 17.7 | 0.00 | 0.00 | 0.00 | 28 | 1014.5 |
| 20260903183303 | 37 | 257 | 8.0 | 17.7 | 0.00 | 0.00 | 0.00 | 28 | 1014.6 |
| 20260903182804 | 37 | 237 | 9.7 | 17.7 | 0.00 | 0.00 | 0.00 | 29 | 1014.7 |
| 20260903182306 | 37 | 173 | 9.7 | 17.7 | 0.00 | 0.00 | 0.00 | 29 | 1014.7 |
| 20260903181803 | 36 | 324 | 8.0 | 16.1 | 0.00 | 0.00 | 0.00 | 30 | 1014.8 |
| 20260903181607 | 36 | 251 | 8.0 | 16.1 | 0.00 | 0.00 | 0.00 | 33 | 1014.9 |
| 20260903180805 | 36 | 223 | 6.4 | 20.9 | 0.00 | 0.00 | 0.00 | 29 | 1014.9 |
| 20260903180303 | 36 | 219 | 9.7 | 20.9 | 0.00 | 0.00 | 0.00 | 31 | 1015.2 |
| 20260903175807 | 36 | 243 | 8.0 | 17.7 | 0.00 | 0.00 | 0.00 | 30 | 1015.2 |
| 20260903175308 | 37 | 279 | 8.0 | 17.7 | 0.00 | 0.00 | 0.00 | 30 | 1015.2 |
| 20260903174805 | 36 | 259 | 8.0 | 17.7 | 0.00 | 0.00 | 0.00 | 32 | 1015.3 |
| 20260903174304 | 36 | 245 | 6.4 | 17.7 | 0.00 | 0.00 | 0.00 | 31 | 1015.2 |
| 20260903173803 | 36 | 204 | 8.0 | 19.3 | 0.00 | 0.00 | 0.00 | 32 | 1015.4 |
| 20260903173657 | 36 | 234 | 12.9 | 19.3 | 0.00 | 0.00 | 0.00 | 32 | 1015.4 |
| 20260903173030 | 36 | 233 | 11.3 | 19.3 | 0.00 | 0.00 | 0.00 | 32 | 1015.4 |
| 20260903172809 | 36 | 233 | 11.3 | 19.3 | 0.00 | 0.00 | 0.00 | 32 | 1015.4 |
| 20260903172306 | 35 | 268 | 6.4 | 20.9 | 0.00 | 0.00 | 0.00 | 32 | 1015.3 |
| 20260903171803 | 35 | 193 | 8.0 | 24.1 | 0.00 | 0.00 | 0.00 | 33 | 1015.4 |
| 20260903171304 | 35 | 259 | 12.9 | 25.7 | 0.00 | 0.00 | 0.00 | 33 | 1015.5 |
| 20260903170804 | 35 | 226 | 8.0 | 25.7 | 0.00 | 0.00 | 0.00 | 34 | 1015.5 |
| 20260903170309 | 35 | 159 | 11.3 | 22.5 | 0.00 | 0.00 | 0.00 | 34 | 1015.5 |
| 20260903165804 | 35 | 283 | 11.3 | 20.9 | 0.00 | 0.00 | 0.00 | 34 | 1015.6 |
| 20260903165305 | 35 | 274 | 12.9 | 22.5 | 0.00 | 0.00 | 0.00 | 34 | 1015.5 |
| 20260903164807 | 34 | 243 | 9.7 | 27.4 | 0.00 | 0.00 | 0.00 | 35 | 1015.5 |
| 20260903164304 | 34 | 231 | 9.7 | 27.4 | 0.00 | 0.00 | 0.00 | 34 | 1015.4 |
| 20260903163804 | 34 | 221 | 12.9 | 25.7 | 0.00 | 0.00 | 0.00 | 36 | 1015.5 |
| 20260903163653 | 34 | 216 | 11.3 | 25.7 | 0.00 | 0.00 | 0.00 | 36 | 1015.5 |
| 20260903162807 | 34 | 151 | 3.2 | 16.1 | 0.00 | 0.00 | 0.00 | 38 | 1015.5 |
| 20260903162306 | 33 | 241 | 4.8 | 16.1 | 0.00 | 0.00 | 0.00 | 39 | 1015.5 |
| 20260903161803 | 33 | 216 | 8.0 | 16.1 | 0.00 | 0.00 | 0.00 | 40 | 1015.6 |
| 20260903161303 | 32 | 245 | 6.4 | 17.7 | 0.00 | 0.00 | 0.00 | 40 | 1015.5 |
| 20260903161141 | 32 | 231 | 8.0 | 20.9 | 0.00 | 0.00 | 0.00 | 39 | 1015.6 |
| 20260903160304 | 32 | 275 | 11.3 | 20.9 | 0.00 | 0.00 | 0.00 | 40 | 1015.7 |
| 20260903155803 | 32 | 196 | 6.4 | 24.1 | 0.00 | 0.00 | 0.00 | 43 | 1015.7 |
| 20260903155306 | 31 | 212 | 8.0 | 24.1 | 0.00 | 0.00 | 0.00 | 42 | 1015.7 |
| 20260903154802 | 31 | 217 | 11.3 | 20.9 | 0.00 | 0.00 | 0.00 | 43 | 1015.7 |
| 20260903154302 | 31 | 226 | 6.4 | 16.1 | 0.00 | 0.00 | 0.00 | 44 | 1015.6 |
| 20260903153804 | 30 | 220 | 9.7 | 16.1 | 0.00 | 0.00 | 0.00 | 46 | 1015.6 |
| 20260903153303 | 30 | 226 | 8.0 | 19.3 | 0.00 | 0.00 | 0.00 | 46 | 1015.7 |
| 20260903152801 | 29 | 265 | 8.0 | 20.9 | 0.00 | 0.00 | 0.00 | 45 | 1015.7 |
| 20260903152306 | 29 | 243 | 6.4 | 20.9 | 0.00 | 0.00 | 0.00 | 47 | 1015.7 |
| 20260903151802 | 28 | 199 | 9.7 | 20.9 | 0.00 | 0.00 | 0.00 | 47 | 1015.7 |
| 20260903151303 | 28 | 255 | 9.7 | 20.9 | 0.00 | 0.00 | 0.00 | 48 | 1015.7 |
| 20260903150806 | 28 | 135 | 6.4 | 17.7 | 0.00 | 0.00 | 0.00 | 51 | 1015.8 |
| 20260903150301 | 27 | 197 | 8.0 | 17.7 | 0.00 | 0.00 | 0.00 | 49 | 1015.8 |
| 20260903145804 | 27 | 216 | 6.4 | 17.7 | 0.00 | 0.00 | 0.00 | 52 | 1015.9 |
| 20260903145305 | 26 | 238 | 9.7 | 17.7 | 0.00 | 0.00 | 0.00 | 51 | 1015.8 |
| 20260903144803 | 26 | 212 | 4.8 | 11.3 | 0.00 | 0.00 | 0.00 | 53 | 1015.8 |
| 20260903144303 | 25 | 230 | 6.4 | 17.7 | 0.00 | 0.00 | 0.00 | 54 | 1015.8 |
| 20260903143803 | 25 | 186 | 4.8 | 17.7 | 0.00 | 0.00 | 0.00 | 55 | 1015.8 |
| 20260903143303 | 25 | 227 | 4.8 | 16.1 | 0.00 | 0.00 | 0.00 | 54 | 1015.8 |
| 20260903142803 | 25 | 193 | 6.4 | 11.3 | 0.00 | 0.00 | 0.00 | 56 | 1015.8 |
| 20260903142305 | 24 | 178 | 6.4 | 11.3 | 0.00 | 0.00 | 0.00 | 56 | 1015.7 |
| 20260903141803 | 23 | 183 | 6.4 | 11.3 | 0.00 | 0.00 | 0.00 | 57 | 1015.7 |
| 20260903141301 | 23 | 179 | 4.8 | 11.3 | 0.00 | 0.00 | 0.00 | 58 | 1015.7 |
| 20260903140804 | 23 | 216 | 6.4 | 11.3 | 0.00 | 0.00 | 0.00 | 59 | 1015.7 |
| 20260903140303 | 23 | 213 | 4.8 | 8.0 | 0.00 | 0.00 | 0.00 | 59 | 1015.8 |
| 20260903135809 | 22 | 103 | 4.8 | 8.0 | 0.00 | 0.00 | 0.00 | 58 | 1015.8 |
| 20260903135306 | 22 | 164 | 3.2 | 9.7 | 0.00 | 0.00 | 0.00 | 59 | 1015.8 |
| 20260903134803 | 22 | 149 | 4.8 | 9.7 | 0.00 | 0.00 | 0.00 | 59 | 1015.8 |
| 20260903134302 | 22 | 131 | 4.8 | 11.3 | 0.00 | 0.00 | 0.00 | 59 | 1015.8 |
| 20260903133802 | 22 | 172 | 6.4 | 11.3 | 0.00 | 0.00 | 0.00 | 59 | 1015.9 |
| 20260903133304 | 22 | 247 | 4.8 | 9.7 | 0.00 | 0.00 | 0.00 | 59 | 1015.8 |
| 20260903133136 | 22 | 182 | 3.2 | 9.7 | 0.00 | 0.00 | 0.00 | 59 | 1015.8 |
| 20260903132652 | 22 | 141 | 6.4 | 9.7 | 0.00 | 0.00 | 0.00 | 60 | 1015.7 |
| 20260903131803 | 22 | 180 | 4.8 | 9.7 | 0.00 | 0.00 | 0.00 | 60 | 1015.6 |
| 20260903131303 | 21 | 158 | 3.2 | 8.0 | 0.00 | 0.00 | 0.00 | 60 | 1015.6 |
| 20260903131150 | 21 | 107 | 4.8 | 8.0 | 0.00 | 0.00 | 0.00 | 59 | 1015.6 |
| 20260903130302 | 21 | 147 | 3.2 | 8.0 | 0.00 | 0.00 | 0.00 | 59 | 1015.6 |
| 20260903130147 | 21 | 134 | 3.2 | 8.0 | 0.00 | 0.00 | 0.00 | 59 | 1015.6 |
| 20260903125531 | 21 | 186 | 3.2 | 8.0 | 0.00 | 0.00 | 0.00 | 59 | 1015.5 |
| 20260903125310 | 21 | 186 | 3.2 | 8.0 | 0.00 | 0.00 | 0.00 | 59 | 1015.5 |
| 20260903124802 | 21 | 128 | 3.2 | 8.0 | 0.00 | 0.00 | 0.00 | 59 | 1015.4 |
| 20260903124303 | 21 | 158 | 4.8 | 8.0 | 0.00 | 0.00 | 0.00 | 59 | 1015.4 |
| 20260903123802 | 21 | 189 | 4.8 | 9.7 | 0.00 | 0.00 | 0.00 | 60 | 1015.4 |
| 20260903123307 | 21 | 166 | 4.8 | 9.7 | 0.00 | 0.00 | 0.00 | 59 | 1015.4 |
| 20260903122803 | 21 | 151 | 3.2 | 9.7 | 0.00 | 0.00 | 0.00 | 59 | 1015.4 |
| 20260903122305 | 21 | 158 | 3.2 | 9.7 | 0.00 | 0.00 | 0.00 | 59 | 1015.2 |
| 20260903121803 | 21 | 157 | 6.4 | 9.7 | 0.00 | 0.00 | 0.00 | 59 | 1015.2 |
| 20260903121301 | 21 | 183 | 3.2 | 9.7 | 0.00 | 0.00 | 0.00 | 59 | 1015.2 |
| 20260903121133 | 21 | 158 | 4.8 | 8.0 | 0.00 | 0.00 | 0.00 | 59 | 1015.3 |
| 20260903120303 | 21 | 109 | 3.2 | 8.0 | 0.00 | 0.00 | 0.00 | 58 | 1015.2 |
| 20260903115802 | 21 | 154 | 4.8 | 11.3 | 0.00 | 0.00 | 0.00 | 58 | 1015.2 |
| 20260903115305 | 21 | 147 | 3.2 | 11.3 | 0.00 | 0.00 | 0.00 | 58 | 1015.2 |
| 20260903114810 | 21 | 195 | 6.4 | 9.7 | 0.00 | 0.00 | 0.00 | 58 | 1015.2 |
| 20260903114304 | 21 | 110 | 4.8 | 9.7 | 0.00 | 0.00 | 0.00 | 57 | 1015.3 |
| 20260903113803 | 21 | 189 | 3.2 | 9.7 | 0.00 | 0.00 | 0.00 | 57 | 1015.2 |
| 20260903113302 | 21 | 213 | 4.8 | 14.5 | 0.00 | 0.00 | 0.00 | 58 | 1015.2 |
| 20260903112825 | 21 | 182 | 6.4 | 14.5 | 0.00 | 0.00 | 0.00 | 59 | 1015.2 |
| 20260903112417 | 21 | 173 | 4.8 | 9.7 | 0.00 | 0.00 | 0.00 | 59 | 1015.1 |
| 20260903111303 | 21 | 204 | 4.8 | 11.3 | 0.00 | 0.00 | 0.00 | 59 | 1015.2 |
| 20260903110802 | 21 | 133 | 4.8 | 11.3 | 0.00 | 0.00 | 0.00 | 58 | 1015.3 |
| 20260903110302 | 21 | 140 | 1.6 | 11.3 | 0.00 | 0.00 | 0.00 | 58 | 1015.3 |
| 20260903105801 | 21 | 138 | 4.8 | 14.5 | 0.00 | 0.00 | 0.00 | 59 | 1015.3 |
| 20260903105301 | 21 | 196 | 4.8 | 14.5 | 0.00 | 0.00 | 0.00 | 60 | 1015.2 |
| 20260903104803 | 21 | 185 | 3.2 | 9.7 | 0.00 | 0.00 | 0.00 | 61 | 1015.3 |
| 20260903104302 | 21 | 121 | 4.8 | 11.3 | 0.00 | 0.00 | 0.00 | 61 | 1015.4 |
| 20260903104128 | 21 | 155 | 6.4 | 11.3 | 0.00 | 0.00 | 0.00 | 61 | 1015.3 |
| 20260903103304 | 21 | 92 | 3.2 | 14.5 | 0.00 | 0.00 | 0.00 | 61 | 1015.3 |
| 20260903102804 | 21 | 118 | 6.4 | 14.5 | 0.00 | 0.00 | 0.00 | 59 | 1015.4 |
| 20260903102305 | 22 | 110 | 4.8 | 14.5 | 0.00 | 0.00 | 0.00 | 56 | 1015.4 |
| 20260903101802 | 22 | 104 | 4.8 | 19.3 | 0.00 | 0.00 | 0.00 | 55 | 1015.4 |
| 20260903101632 | 22 | 147 | 8.0 | 19.3 | 0.00 | 0.00 | 0.00 | 55 | 1015.3 |
| 20260903100804 | 22 | 185 | 6.4 | 16.1 | 0.00 | 0.00 | 0.00 | 56 | 1015.3 |
| 20260903100511 | 22 | 152 | 8.0 | 16.1 | 0.00 | 0.00 | 0.00 | 57 | 1015.4 |
| 20260903100421 | 22 | 171 | 8.0 | 16.1 | 0.00 | 0.00 | 0.00 | 56 | 1015.3 |
| 20260903095520 | 22 | 192 | 6.4 | 9.7 | 0.00 | 0.00 | 0.00 | 59 | 1015.5 |
| 20260903095424 | 22 | 154 | 6.4 | 11.3 | 0.00 | 0.00 | 0.00 | 57 | 1015.4 |
| 20260903094629 | 22 | 217 | 4.8 | 9.7 | 0.00 | 0.00 | 0.00 | 59 | 1015.5 |
| 20260903093803 | 22 | 165 | 4.8 | 11.3 | 0.00 | 0.00 | 0.00 | 58 | 1015.6 |
| 20260903093540 | 22 | 123 | 4.8 | 11.3 | 0.00 | 0.00 | 0.00 | 58 | 1015.6 |
| 20260903093133 | 22 | 142 | 6.4 | 11.3 | 0.00 | 0.00 | 0.00 | 57 | 1015.7 |
| 20260903092306 | 22 | 185 | 3.2 | 11.3 | 0.00 | 0.00 | 0.00 | 56 | 1015.6 |
| 20260903092106 | 22 | 109 | 6.4 | 11.3 | 0.00 | 0.00 | 0.00 | 56 | 1015.6 |
| 20260903091303 | 22 | 86 | 6.4 | 16.1 | 0.00 | 0.00 | 0.00 | 56 | 1015.6 |
| 20260903091127 | 22 | 178 | 8.0 | 16.1 | 0.00 | 0.00 | 0.00 | 56 | 1015.5 |
| 20260903090302 | 23 | 247 | 6.4 | 14.5 | 0.00 | 0.00 | 0.00 | 55 | 1015.6 |
| 20260903085806 | 23 | 140 | 4.8 | 14.5 | 0.00 | 0.00 | 0.00 | 55 | 1015.6 |
| 20260903085305 | 23 | 171 | 8.0 | 14.5 | 0.00 | 0.00 | 0.00 | 54 | 1015.7 |
| 20260903084803 | 23 | 171 | 4.8 | 11.3 | 0.00 | 0.00 | 0.00 | 54 | 1015.7 |
| 20260903084302 | 23 | 186 | 4.8 | 14.5 | 0.00 | 0.00 | 0.00 | 53 | 1015.7 |
| 20260903083802 | 23 | 147 | 6.4 | 16.1 | 0.00 | 0.00 | 0.00 | 53 | 1015.8 |
| 20260903083304 | 23 | 149 | 4.8 | 16.1 | 0.00 | 0.00 | 0.00 | 52 | 1015.7 |
| 20260903082802 | 23 | 123 | 6.4 | 16.1 | 0.00 | 0.00 | 0.00 | 52 | 1015.6 |
| 20260903082306 | 23 | 134 | 6.4 | 16.1 | 0.00 | 0.00 | 0.00 | 52 | 1015.6 |
| 20260903081802 | 24 | 140 | 8.0 | 14.5 | 0.00 | 0.00 | 0.00 | 51 | 1015.6 |
| 20260903081336 | 24 | 154 | 6.4 | 16.1 | 0.00 | 0.00 | 0.00 | 50 | 1015.7 |
| 20260903081327 | 24 | 147 | 4.8 | 14.5 | 0.00 | 0.00 | 0.00 | 50 | 1015.7 |
| 20260903081315 | 24 | 114 | 4.8 | 11.3 | 0.00 | 0.00 | 0.00 | 50 | 1015.6 |
| 20260903075802 | 24 | 131 | 8.0 | 16.1 | 0.00 | 0.00 | 0.00 | 49 | 1015.7 |
| 20260903075310 | 24 | 124 | 6.4 | 17.7 | 0.00 | 0.00 | 0.00 | 49 | 1015.8 |
| 20260903074803 | 24 | 148 | 6.4 | 17.7 | 0.00 | 0.00 | 0.00 | 49 | 1015.7 |
| 20260903074302 | 24 | 159 | 6.4 | 16.1 | 0.00 | 0.00 | 0.00 | 49 | 1015.7 |
| 20260903073802 | 24 | 138 | 6.4 | 16.1 | 0.00 | 0.00 | 0.00 | 50 | 1015.7 |
| 20260903073302 | 24 | 152 | 6.4 | 17.7 | 0.00 | 0.00 | 0.00 | 51 | 1015.7 |
| 20260903072802 | 24 | 138 | 4.8 | 17.7 | 0.00 | 0.00 | 0.00 | 51 | 1015.6 |
| 20260903072626 | 23 | 162 | 6.4 | 14.5 | 0.00 | 0.00 | 0.00 | 51 | 1015.7 |
| 20260903071803 | 24 | 142 | 6.4 | 16.1 | 0.00 | 0.00 | 0.00 | 51 | 1015.7 |
| 20260903071307 | 23 | 145 | 6.4 | 17.7 | 0.00 | 0.00 | 0.00 | 51 | 1015.7 |
| 20260903070803 | 24 | 234 | 8.0 | 17.7 | 0.00 | 0.00 | 0.00 | 51 | 1015.7 |
| 20260903070302 | 24 | 123 | 6.4 | 14.5 | 0.00 | 0.00 | 0.00 | 51 | 1015.6 |
| 20260903065803 | 24 | 128 | 3.2 | 14.5 | 0.00 | 0.00 | 0.00 | 51 | 1015.7 |
| 20260903065415 | 24 | 154 | 4.8 | 14.5 | 0.00 | 0.00 | 0.00 | 50 | 1015.7 |
| 20260903065341 | 24 | 137 | 4.8 | 14.5 | 0.00 | 0.00 | 0.00 | 51 | 1015.7 |
| 20260903064814 | 24 | 154 | 4.8 | 14.5 | 0.00 | 0.00 | 0.00 | 50 | 1015.7 |
| 20260903064302 | 24 | 152 | 6.4 | 14.5 | 0.00 | 0.00 | 0.00 | 50 | 1015.7 |
| 20260903064128 | 25 | 142 | 3.2 | 14.5 | 0.00 | 0.00 | 0.00 | 50 | 1015.7 |
| 20260903063307 | 24 | 109 | 8.0 | 16.1 | 0.00 | 0.00 | 0.00 | 50 | 1015.6 |
| 20260903063133 | 24 | 192 | 6.4 | 16.1 | 0.00 | 0.00 | 0.00 | 51 | 1015.7 |
| 20260903062306 | 24 | 104 | 8.0 | 16.1 | 0.00 | 0.00 | 0.00 | 51 | 1015.7 |
| 20260903061801 | 24 | 123 | 6.4 | 16.1 | 0.00 | 0.00 | 0.00 | 51 | 1015.7 |
| 20260903061301 | 25 | 180 | 6.4 | 14.5 | 0.00 | 0.00 | 0.00 | 51 | 1015.6 |